| time (UTC) | temp C | wind direction | speed KPH | gust KPH | rain 1hr cm | rain 24hr cm | rain mn cm | humidity % | barometer mb |
| 20260507032327 | 7 | 320 | 0.0 | 0.0 | 0.00 | 1.60 | 1.30 | 92 | 1015.3 |
| 20260507031330 | 7 | 320 | 0.0 | 0.0 | 0.00 | 1.60 | 1.30 | 92 | 1015.4 |
| 20260507030316 | 7 | 320 | 0.0 | 0.0 | 0.00 | 1.60 | 1.30 | 92 | 1015.5 |
| 20260507025321 | 7 | 320 | 0.0 | 0.0 | 0.00 | 1.93 | 1.30 | 92 | 1015.6 |
| 20260507024325 | 7 | 320 | 0.0 | 0.0 | 0.00 | 1.93 | 1.30 | 91 | 1015.5 |
| 20260507023352 | 8 | 320 | 0.0 | 0.0 | 0.00 | 1.93 | 1.30 | 90 | 1015.5 |
| 20260507022316 | 8 | 320 | 0.0 | 0.0 | 0.00 | 1.93 | 1.30 | 90 | 1015.5 |
| 20260507021325 | 8 | 320 | 0.0 | 0.0 | 0.00 | 1.93 | 1.30 | 89 | 1015.4 |
| 20260507020331 | 8 | 320 | 0.0 | 0.0 | 0.00 | 1.93 | 1.30 | 89 | 1015.2 |
| 20260507015335 | 9 | 320 | 0.0 | 0.0 | 0.00 | 2.21 | 1.30 | 88 | 1015.2 |
| 20260507014319 | 9 | 320 | 0.0 | 0.0 | 0.00 | 2.21 | 1.30 | 87 | 1015.0 |
| 20260507013324 | 10 | 320 | 0.0 | 0.0 | 0.00 | 2.21 | 1.30 | 86 | 1014.9 |
| 20260507012349 | 10 | 320 | 0.0 | 0.0 | 0.00 | 2.21 | 1.30 | 86 | 1014.9 |
| 20260507011315 | 10 | 320 | 0.0 | 0.0 | 0.00 | 2.21 | 1.30 | 84 | 1014.8 |
| 20260507010323 | 10 | 320 | 0.0 | 0.0 | 0.00 | 2.21 | 1.30 | 83 | 1014.8 |
| 20260507005328 | 10 | 320 | 0.0 | 0.0 | 0.00 | 2.46 | 1.30 | 81 | 1014.9 |
| 20260507004332 | 11 | 320 | 0.0 | 0.0 | 0.00 | 2.46 | 1.30 | 79 | 1014.7 |
| 20260507003319 | 11 | 320 | 0.0 | 0.0 | 0.00 | 2.46 | 1.30 | 77 | 1014.5 |
| 20260507002324 | 12 | 320 | 0.0 | 0.0 | 0.00 | 2.46 | 1.30 | 74 | 1014.4 |
| 20260507001330 | 12 | 320 | 0.0 | 0.0 | 0.00 | 2.46 | 1.30 | 69 | 1014.3 |
| 20260507000317 | 12 | 320 | 0.0 | 0.0 | 0.00 | 2.46 | 1.30 | 67 | 1014.2 |
| 20260506235324 | 12 | 320 | 0.0 | 0.0 | 0.00 | 2.67 | 1.30 | 64 | 1014.3 |
| 20260506234328 | 13 | 320 | 0.0 | 0.0 | 0.00 | 2.67 | 1.30 | 62 | 1014.3 |
| 20260506233351 | 13 | 323 | 0.0 | 1.6 | 0.00 | 2.67 | 1.30 | 58 | 1014.1 |
| 20260506232333 | 13 | 300 | 0.0 | 1.6 | 0.00 | 2.67 | 1.30 | 57 | 1014.0 |
| 20260506231316 | 13 | 285 | 0.0 | 3.2 | 0.00 | 2.67 | 1.30 | 56 | 1014.2 |
| 20260506230321 | 13 | 252 | 1.6 | 6.4 | 0.00 | 2.67 | 1.30 | 55 | 1014.2 |
| 20260506225321 | 14 | 317 | 1.6 | 6.4 | 0.00 | 2.95 | 1.30 | 53 | 1014.2 |
| 20260506224326 | 14 | 289 | 1.6 | 3.2 | 0.00 | 2.95 | 1.30 | 51 | 1014.3 |
| 20260506223354 | 13 | 270 | 1.6 | 4.8 | 0.00 | 2.95 | 1.30 | 52 | 1014.5 |
| 20260506222314 | 13 | 336 | 3.2 | 8.0 | 0.00 | 2.95 | 1.30 | 51 | 1014.4 |
| 20260506221321 | 13 | 285 | 3.2 | 6.4 | 0.00 | 2.95 | 1.30 | 52 | 1014.4 |
| 20260506220326 | 13 | 285 | 1.6 | 6.4 | 0.00 | 2.95 | 1.30 | 51 | 1014.5 |
| 20260506215334 | 13 | 317 | 3.2 | 6.4 | 0.00 | 3.05 | 1.30 | 52 | 1014.5 |
| 20260506214339 | 13 | 288 | 3.2 | 8.0 | 0.00 | 3.05 | 1.30 | 53 | 1014.5 |
| 20260506213324 | 14 | 300 | 1.6 | 6.4 | 0.00 | 3.05 | 1.30 | 56 | 1014.4 |
| 20260506212328 | 13 | 276 | 1.6 | 6.4 | 0.00 | 3.05 | 1.30 | 53 | 1014.2 |
| 20260506211331 | 13 | 317 | 3.2 | 6.4 | 0.00 | 3.05 | 1.30 | 54 | 1014.2 |
| 20260506210314 | 13 | 271 | 1.6 | 4.8 | 0.00 | 3.05 | 1.30 | 54 | 1014.1 |
| 20260506205318 | 14 | 342 | 3.2 | 6.4 | 0.00 | 3.23 | 1.30 | 53 | 1014.0 |
| 20260506204322 | 13 | 6 | 1.6 | 6.4 | 0.00 | 3.23 | 1.30 | 53 | 1014.1 |
| 20260506203327 | 13 | 281 | 1.6 | 8.0 | 0.00 | 3.23 | 1.30 | 53 | 1014.2 |
| 20260506202314 | 13 | 314 | 1.6 | 4.8 | 0.00 | 3.23 | 1.30 | 55 | 1014.1 |
| 20260506201318 | 13 | 283 | 1.6 | 6.4 | 0.00 | 3.23 | 1.30 | 52 | 1014.3 |
| 20260506200320 | 14 | 315 | 3.2 | 9.7 | 0.00 | 3.23 | 1.30 | 50 | 1014.0 |
| 20260506195325 | 14 | 49 | 3.2 | 6.4 | 0.00 | 3.40 | 1.30 | 52 | 1014.1 |
| 20260506194328 | 14 | 23 | 1.6 | 8.0 | 0.00 | 3.40 | 1.30 | 53 | 1014.0 |
| 20260506193313 | 14 | 304 | 1.6 | 8.0 | 0.00 | 3.40 | 1.30 | 52 | 1013.9 |
| 20260506192338 | 14 | 6 | 4.8 | 11.3 | 0.00 | 3.40 | 1.30 | 53 | 1013.8 |
| 20260506191322 | 14 | 23 | 4.8 | 11.3 | 0.00 | 3.40 | 1.30 | 54 | 1014.0 |
| 20260506190347 | 14 | 311 | 4.8 | 11.3 | 0.00 | 3.40 | 1.30 | 53 | 1014.0 |
| 20260506185351 | 14 | 264 | 1.6 | 9.7 | 0.00 | 3.40 | 1.30 | 53 | 1014.0 |
| 20260506184315 | 15 | 311 | 3.2 | 11.3 | 0.00 | 3.40 | 1.30 | 51 | 1014.0 |
| 20260506182346 | 15 | 41 | 4.8 | 17.7 | 0.00 | 3.40 | 1.30 | 49 | 1013.8 |
| 20260506181331 | 15 | 346 | 4.8 | 16.1 | 0.00 | 3.40 | 1.30 | 53 | 1013.8 |
| 20260506180317 | 15 | 252 | 3.2 | 11.3 | 0.00 | 3.40 | 1.30 | 51 | 1014.0 |
| 20260506175322 | 14 | 269 | 1.6 | 11.3 | 0.00 | 3.40 | 1.30 | 52 | 1014.0 |
| 20260506174327 | 15 | 261 | 3.2 | 8.0 | 0.00 | 3.40 | 1.30 | 54 | 1014.1 |
| 20260506173315 | 15 | 13 | 4.8 | 9.7 | 0.00 | 3.40 | 1.30 | 56 | 1014.1 |
| 20260506172324 | 14 | 297 | 4.8 | 14.5 | 0.00 | 3.40 | 1.30 | 57 | 1014.2 |
| 20260506171326 | 15 | 49 | 1.6 | 8.0 | 0.00 | 3.40 | 1.30 | 53 | 1014.1 |
| 20260506170331 | 15 | 331 | 3.2 | 6.4 | 0.00 | 3.40 | 1.30 | 55 | 1014.2 |
| 20260506165315 | 15 | 13 | 4.8 | 8.0 | 0.00 | 3.40 | 1.30 | 55 | 1014.3 |
| 20260506164322 | 14 | 214 | 3.2 | 6.4 | 0.00 | 3.40 | 1.30 | 60 | 1014.2 |
| 20260506163329 | 14 | 322 | 3.2 | 6.4 | 0.00 | 3.40 | 1.30 | 59 | 1014.0 |
| 20260506162317 | 13 | 296 | 6.4 | 9.7 | 0.00 | 3.40 | 1.30 | 59 | 1014.1 |
| 20260506161321 | 13 | 309 | 4.8 | 9.7 | 0.00 | 3.40 | 1.30 | 58 | 1014.2 |
| 20260506160347 | 13 | 316 | 3.2 | 16.1 | 0.00 | 3.40 | 1.30 | 61 | 1014.2 |
| 20260506155332 | 13 | 29 | 1.6 | 6.4 | 0.00 | 3.40 | 1.30 | 60 | 1014.2 |
| 20260506154317 | 13 | 281 | 1.6 | 6.4 | 0.00 | 3.40 | 1.30 | 61 | 1014.3 |
| 20260506153322 | 12 | 31 | 1.6 | 8.0 | 0.00 | 3.40 | 1.30 | 63 | 1014.3 |
| 20260506152325 | 12 | 349 | 3.2 | 9.7 | 0.00 | 3.40 | 1.30 | 66 | 1014.3 |
| 20260506151317 | 12 | 22 | 3.2 | 8.0 | 0.00 | 3.40 | 1.30 | 66 | 1013.9 |
| 20260506150342 | 11 | 25 | 3.2 | 11.3 | 0.00 | 3.40 | 1.30 | 65 | 1013.5 |
| 20260506145325 | 11 | 39 | 4.8 | 9.7 | 0.00 | 3.40 | 1.30 | 68 | 1013.3 |
| 20260506144329 | 11 | 43 | 1.6 | 11.3 | 0.00 | 3.40 | 1.30 | 71 | 1013.1 |
| 20260506143317 | 10 | 359 | 4.8 | 8.0 | 0.00 | 3.40 | 1.30 | 72 | 1012.9 |
| 20260506142320 | 10 | 57 | 1.6 | 12.9 | 0.00 | 3.40 | 1.30 | 74 | 1013.1 |
| 20260506141347 | 10 | 9 | 1.6 | 8.0 | 0.00 | 3.40 | 1.30 | 76 | 1013.0 |
| 20260506140330 | 10 | 27 | 3.2 | 6.4 | 0.00 | 3.40 | 1.30 | 77 | 1013.0 |
| 20260506135319 | 9 | 314 | 3.2 | 6.4 | 0.00 | 3.40 | 1.30 | 78 | 1013.4 |
| 20260506134323 | 9 | 356 | 3.2 | 9.7 | 0.00 | 3.40 | 1.30 | 80 | 1013.3 |
| 20260506133330 | 8 | 293 | 3.2 | 6.4 | 0.00 | 3.40 | 1.30 | 82 | 1013.0 |
| 20260506132313 | 8 | 330 | 0.0 | 4.8 | 0.00 | 3.40 | 1.30 | 86 | 1012.9 |
| 20260506131319 | 8 | 325 | 3.2 | 8.0 | 0.00 | 3.40 | 1.30 | 85 | 1012.7 |
| 20260506130326 | 8 | 36 | 3.2 | 8.0 | 0.00 | 3.40 | 1.30 | 86 | 1012.7 |
| 20260506125314 | 7 | 297 | 3.2 | 8.0 | 0.00 | 3.40 | 1.30 | 87 | 1012.7 |
| 20260506124319 | 7 | 13 | 1.6 | 4.8 | 0.00 | 3.40 | 1.30 | 89 | 1012.3 |
| 20260506123324 | 7 | 13 | 3.2 | 6.4 | 0.00 | 3.40 | 1.30 | 89 | 1012.3 |
| 20260506122330 | 7 | 329 | 1.6 | 4.8 | 0.00 | 3.40 | 1.30 | 90 | 1012.1 |
| 20260506121315 | 7 | 62 | 1.6 | 3.2 | 0.00 | 3.40 | 1.30 | 90 | 1012.3 |
| 20260506120341 | 7 | 18 | 0.0 | 4.8 | 0.00 | 3.40 | 1.30 | 91 | 1012.0 |
| 20260506115345 | 7 | 49 | 1.6 | 6.4 | 0.00 | 3.40 | 1.30 | 91 | 1011.5 |
| 20260506114329 | 7 | 297 | 0.0 | 3.2 | 0.00 | 3.40 | 1.30 | 92 | 1011.6 |
| 20260506113319 | 6 | 299 | 0.0 | 3.2 | 0.00 | 3.40 | 1.30 | 92 | 1011.0 |
| 20260506112324 | 6 | 8 | 0.0 | 4.8 | 0.00 | 3.40 | 1.30 | 92 | 1010.7 |
| 20260506111350 | 6 | 23 | 0.0 | 3.2 | 0.00 | 3.40 | 1.30 | 92 | 1010.9 |
| 20260506110335 | 6 | 58 | 0.0 | 3.2 | 0.00 | 3.40 | 1.30 | 92 | 1011.0 |
| 20260506105339 | 6 | 18 | 0.0 | 1.6 | 0.00 | 3.53 | 1.30 | 92 | 1010.7 |
| 20260506104321 | 6 | 334 | 0.0 | 3.2 | 0.00 | 3.53 | 1.30 | 92 | 1010.8 |
| 20260506103326 | 6 | 352 | 0.0 | 6.4 | 0.00 | 3.53 | 1.30 | 92 | 1010.5 |
| 20260506102329 | 6 | 334 | 3.2 | 9.7 | 0.00 | 3.53 | 1.30 | 93 | 1009.9 |
| 20260506101334 | 6 | 354 | 1.6 | 8.0 | 0.00 | 3.53 | 1.30 | 93 | 1009.8 |
| 20260506100319 | 6 | 8 | 0.0 | 3.2 | 0.00 | 3.53 | 1.30 | 93 | 1010.0 |
| 20260506095321 | 6 | 288 | 1.6 | 6.4 | 0.00 | 3.66 | 1.30 | 93 | 1010.3 |
| 20260506094326 | 6 | 289 | 1.6 | 3.2 | 0.00 | 3.66 | 1.30 | 94 | 1010.1 |
| 20260506093318 | 7 | 51 | 0.0 | 6.4 | 0.00 | 3.66 | 1.30 | 94 | 1009.7 |
| 20260506092322 | 7 | 16 | 0.0 | 4.8 | 0.00 | 3.66 | 1.30 | 94 | 1009.3 |
| 20260506091328 | 6 | 344 | 0.0 | 4.8 | 0.00 | 3.66 | 1.30 | 94 | 1009.4 |
| 20260506090335 | 7 | 67 | 0.0 | 3.2 | 0.00 | 3.66 | 1.30 | 94 | 1009.4 |
| 20260506085319 | 6 | 28 | 0.0 | 3.2 | 0.03 | 3.66 | 1.30 | 94 | 1009.5 |
| 20260506084323 | 6 | 44 | 1.6 | 9.7 | 0.08 | 3.66 | 1.30 | 94 | 1009.3 |
| 20260506083328 | 7 | 80 | 0.0 | 3.2 | 0.13 | 3.66 | 1.30 | 94 | 1009.2 |
| 20260506082317 | 6 | 35 | 1.6 | 9.7 | 0.15 | 3.66 | 1.30 | 94 | 1009.3 |
| 20260506081320 | 7 | 231 | 1.6 | 8.0 | 0.20 | 3.66 | 1.30 | 94 | 1009.2 |
| 20260506080328 | 7 | 13 | 1.6 | 6.4 | 0.23 | 3.66 | 1.30 | 94 | 1009.2 |
| 20260506073322 | 7 | 12 | 1.6 | 11.3 | 0.13 | 3.53 | 1.17 | 94 | 1009.6 |
| 20260506072326 | 7 | 31 | 3.2 | 11.3 | 0.10 | 3.51 | 1.14 | 94 | 1009.2 |
| 20260506071329 | 7 | 28 | 3.2 | 11.3 | 0.08 | 3.45 | 1.09 | 94 | 1009.2 |
| 20260506070314 | 7 | 41 | 4.8 | 12.9 | 0.13 | 3.43 | 1.07 | 93 | 1009.1 |
| 20260506062336 | 8 | 31 | 3.2 | 9.7 | 0.30 | 3.40 | 1.04 | 95 | 1008.7 |
| 20260506061318 | 8 | 32 | 3.2 | 9.7 | 0.36 | 3.38 | 1.02 | 95 | 1008.4 |
| 20260506060323 | 8 | 28 | 3.2 | 6.4 | 0.38 | 3.30 | 0.94 | 94 | 1008.4 |
| 20260506051324 | 8 | 11 | 3.2 | 11.3 | 0.43 | 3.00 | 0.64 | 94 | 1009.2 |
| 20260506050333 | 8 | 30 | 1.6 | 14.5 | 0.46 | 2.90 | 0.53 | 94 | 1008.8 |
| 20260506044323 | 8 | 23 | 3.2 | 11.3 | 0.64 | 2.74 | 0.38 | 94 | 1008.6 |
| 20260506043329 | 9 | 49 | 8.0 | 17.7 | 0.58 | 2.64 | 0.28 | 94 | 1008.4 |
| 20260506042316 | 10 | 311 | 3.2 | 8.0 | 0.56 | 2.62 | 0.25 | 95 | 1008.5 |
| 20260506041322 | 10 | 290 | 0.0 | 12.9 | 0.51 | 2.57 | 0.20 | 95 | 1008.5 |
| 20260506040327 | 10 | 10 | 3.2 | 11.3 | 0.36 | 2.41 | 0.05 | 94 | 1008.5 |
| 20260506035316 | 10 | 12 | 3.2 | 9.7 | 0.15 | 2.21 | 2.21 | 95 | 1008.4 |
| 20260506034321 | 10 | 43 | 3.2 | 6.4 | 0.05 | 2.08 | 2.08 | 94 | 1008.0 |
| 20260506033326 | 10 | 25 | 0.0 | 8.0 | 0.10 | 2.06 | 2.06 | 94 | 1007.9 |